GFSSW_sfc_rhum_021.txt.gz
RH
72 72 71 70 70 69 74 75 75 76 78 79 79 79 79 80 81 39 16 21 30 62 69 46 41 32 30 29 32 34 33 29 26 27 18 21 20 20 17 20 17 16 17 15 21
72 73 72 71 74 72 72 72 72 71 74 77 80 80 80 82 69 47 31 48 58 70 33 28 30 33 32 33 32 33 36 28 20 19 20 22 22 23 23 22 21 19 18 16 20
75 74 75 77 76 77 74 76 73 70 70 72 77 78 80 74 33 10 58 60 53 62 15 19 19 29 31 34 32 32 36 25 21 21 22 21 23 20 23 23 18 21 21 20 19
76 74 74 75 75 74 74 74 74 74 71 73 75 75 78 67 18 25 50 52 72 37 20 16 22 33 27 32 31 35 31 27 23 22 24 24 22 26 24 24 20 21 22 22 22
77 77 76 76 73 73 74 72 78 77 77 75 72 71 67 72 31 13 43 38 24 40 25 20 24 21 21 24 23 37 28 27 28 26 26 27 29 29 26 21 18 19 22 24 22
76 76 77 77 72 74 75 78 82 81 80 74 73 70 70 80 35 32 34 30 12 20 28 19 22 21 22 22 24 20 27 26 25 26 25 27 25 26 24 22 20 21 20 18 18
76 77 78 77 72 72 74 78 84 81 79 73 74 59 70 60 36 33 33 38 28 21 15 20 18 23 22 25 21 24 29 27 27 27 28 22 22 21 17 17 19 19 19 19 19
79 81 79 78 77 72 74 81 83 80 78 74 73 63 71 40 37 42 40 43 38 31 26 13 16 16 21 20 20 19 21 20 15 18 17 18 21 13 14 17 18 19 19 19 21
80 83 80 79 78 77 81 85 80 74 71 67 72 68 66 42 43 39 42 41 26 29 24 14 15 23 22 24 26 25 20 23 18 18 17 20 17 12 15 18 20 20 18 17 18
79 83 83 79 77 80 86 83 71 66 58 52 48 67 39 29 35 29 33 41 34 24 24 19 20 23 21 20 28 25 28 22 22 14 13 14 17 14 17 17 20 19 19 20 23
77 81 83 74 78 84 81 65 54 59 57 57 50 50 35 26 25 22 29 44 39 21 21 18 21 24 21 21 19 19 22 23 19 14 15 15 17 19 18 17 18 21 22 25 27
80 80 81 82 81 84 66 64 68 67 80 50 52 49 41 33 44 25 22 33 36 24 17 20 21 17 17 18 20 20 22 23 19 16 19 18 20 19 20 20 18 19 22 24 24
85 84 84 83 85 75 76 69 57 65 83 56 47 51 49 44 56 42 27 27 29 27 18 18 15 13 18 20 23 22 22 21 20 17 20 24 23 21 16 19 18 18 22 24 26
88 87 86 84 72 71 68 60 64 71 84 46 51 44 43 42 52 36 24 22 24 25 19 16 11 12 15 19 21 26 19 18 19 24 25 22 29 24 21 19 18 18 22 22 24
87 82 84 77 82 70 60 65 61 65 47 24 47 32 30 36 32 28 29 24 29 23 19 19 15 14 15 15 20 21 17 22 22 25 27 26 30 24 21 23 19 18 21 24 32
85 82 85 71 74 57 60 69 66 78 57 31 32 32 27 32 32 28 31 26 22 29 18 16 12 12 12 13 18 19 20 22 26 26 38 29 27 25 19 20 17 17 19 32 46
83 84 85 69 73 73 71 69 78 71 27 40 43 34 27 34 42 37 37 39 30 41 38 23 17 13 11 14 16 22 28 33 37 36 37 23 28 28 18 18 21 19 18 38 49
90 88 81 66 70 73 79 78 78 36 48 37 42 31 28 36 61 42 47 60 33 30 29 33 31 17 12 13 17 26 29 26 37 34 24 26 29 24 22 17 17 19 22 38 50
90 76 73 71 75 81 94 82 50 52 50 53 42 35 31 36 36 35 60 92 48 26 36 33 28 18 13 11 17 24 28 20 25 34 26 28 31 30 24 24 24 22 31 42 52
82 83 66 75 83 90 98 79 69 49 49 47 55 43 49 42 37 36 60 80 89 61 52 39 37 20 16 10 12 22 21 30 24 29 30 29 35 22 25 23 23 29 37 49 54
88 80 60 74 94 98 98 82 72 52 48 58 55 53 48 44 39 45 51 50 92 68 59 44 41 26 17 17 15 17 23 22 21 23 22 24 20 29 24 24 25 28 40 50 52
85 83 65 78 97 94 90 73 75 57 50 57 55 66 58 49 47 51 51 47 59 80 91 58 61 39 23 15 13 15 20 23 22 34 24 25 23 25 29 24 27 31 43 46 47
87 90 73 86 95 86 72 62 65 60 63 63 60 51 49 58 65 52 50 43 47 65 87 84 57 42 31 23 17 19 16 22 22 26 28 20 21 22 32 27 27 34 42 50 49
91 93 84 88 83 85 82 62 69 53 67 80 64 53 60 56 48 67 64 44 41 47 69 80 65 58 32 31 28 23 19 18 24 22 22 20 15 17 20 21 32 37 44 46 49
95 90 88 93 85 88 83 74 76 69 58 55 68 66 84 77 63 98 94 87 58 66 61 75 68 53 46 42 40 33 18 17 22 20 22 20 18 17 17 21 28 37 45 47 46
99 90 80 94 81 81 75 65 73 64 70 58 72 61 64 74 67 80 87 87 97 67 75 71 66 57 43 33 33 36 27 17 17 16 19 19 22 14 16 27 34 41 44 42 42
91 93 98 80 83 92 80 92 92 89 65 61 63 73 73 61 58 61 61 60 64 85 78 74 68 59 40 36 34 35 29 26 20 16 16 19 18 19 24 30 34 37 40 38 40

GFSSW_sfc_rhum_024.txt.gz
RH
75 74 75 74 74 76 75 73 72 70 70 73 75 81 80 80 77 28 15 19 24 70 67 26 24 23 20 18 19 16 20 19 16 15 14 13 13 13 14 14 12 12 13 13 13
72 72 73 75 75 77 77 78 76 72 70 68 72 76 77 80 46 28 30 46 60 62 13 20 20 18 21 21 20 23 20 17 13 12 12 12 14 13 16 16 14 13 11 13 14
74 74 73 73 71 74 74 74 77 75 74 72 72 75 76 65 31 9 58 62 58 52 9 10 11 13 15 15 20 21 23 15 14 13 12 13 14 12 14 16 15 14 13 13 14
73 72 73 75 72 75 75 72 71 74 74 75 75 73 74 44 12 26 47 54 60 46 17 10 15 14 17 14 15 21 18 17 16 13 14 16 15 16 15 16 14 14 14 13 14
73 73 74 75 74 70 72 72 73 75 76 76 75 71 54 40 19 15 44 38 15 27 17 12 15 15 18 15 13 17 17 16 15 17 16 17 18 17 16 14 13 13 13 14 14
73 75 76 76 76 72 72 72 77 80 78 76 72 76 50 45 15 17 21 20 16 15 21 14 12 12 17 16 15 13 12 12 13 14 15 16 16 15 15 15 14 14 12 10 11
77 78 78 77 76 75 72 78 82 83 79 76 71 63 64 36 17 18 18 19 20 14 11 15 10 16 16 20 15 14 17 15 16 15 14 14 18 17 13 14 13 12 11 11 11
80 82 79 76 76 75 75 80 82 79 76 75 70 62 55 21 18 21 19 20 19 21 16 11 12 14 17 16 16 17 18 22 16 16 16 18 21 13 10 10 11 11 10 11 12
78 82 79 78 73 74 80 84 80 74 70 70 60 59 32 35 30 22 20 23 16 19 20 11 10 16 14 17 19 18 21 21 18 13 14 15 18 13 10 11 12 13 13 12 12
77 82 83 80 80 81 84 84 67 70 51 44 36 49 28 16 19 24 17 25 27 18 24 17 12 14 15 16 21 20 19 18 18 14 13 14 16 13 11 11 12 13 13 13 13
78 82 83 84 81 84 67 31 34 38 37 31 22 33 18 13 14 17 16 28 29 26 25 18 16 17 15 17 15 15 16 18 15 13 15 16 16 13 12 11 14 14 14 15 15
78 80 80 84 81 84 49 37 47 50 58 30 27 24 19 17 27 20 14 26 32 28 20 17 18 13 12 13 16 16 17 17 14 13 15 17 17 14 13 14 14 14 14 14 14
85 83 81 83 81 65 43 48 39 45 58 32 23 24 22 24 29 25 17 18 23 26 19 18 15 11 10 13 15 16 18 17 16 15 16 18 20 19 15 14 13 13 14 14 14
87 86 84 85 67 41 41 41 38 45 61 21 32 29 29 30 38 25 20 16 19 24 20 17 12 12 11 12 11 18 13 14 17 20 22 16 24 21 17 18 16 15 14 13 12
87 84 84 83 55 46 39 39 41 49 35 18 33 22 21 28 24 27 20 24 19 21 20 19 15 14 13 12 10 14 12 16 18 20 21 19 21 20 17 20 18 16 14 12 14
87 84 84 51 50 44 36 43 51 77 38 20 23 27 22 22 24 24 24 24 22 16 17 19 11 11 12 10 10 10 13 16 17 18 27 22 22 22 19 20 18 14 11 12 22
85 82 71 50 59 47 43 48 69 46 17 23 34 25 22 20 26 33 30 31 32 28 22 21 18 13 10 12 10 13 20 22 28 27 31 22 23 24 20 15 14 13 13 22 28
87 87 75 45 51 56 51 69 60 24 25 21 26 24 22 18 28 30 34 46 36 22 16 22 30 18 11 12 13 15 19 16 31 27 23 20 27 20 15 13 13 10 13 22 28
88 47 42 52 58 51 65 70 44 41 33 38 33 26 20 19 23 22 28 50 73 39 30 21 24 14 12 10 10 15 19 13 18 20 20 18 20 16 15 14 13 14 13 21 31
51 45 51 55 57 66 89 67 47 39 37 38 50 30 30 22 26 23 28 67 68 57 45 36 40 17 14 9 10 14 13 21 17 31 30 18 22 20 17 14 16 17 18 24 33
51 43 53 53 61 83 92 62 43 35 40 46 44 43 38 31 27 24 33 58 77 65 49 39 42 26 16 16 13 13 16 18 17 16 23 23 19 17 17 15 17 16 19 30 34
47 61 43 54 89 76 80 47 56 43 37 47 44 50 50 42 36 31 33 34 58 57 76 39 43 40 23 13 11 13 16 19 20 29 17 15 16 16 17 17 17 20 26 29 30
49 46 42 57 93 79 54 41 37 43 42 56 58 43 43 46 55 41 44 52 49 61 89 67 43 44 34 19 15 15 14 18 19 20 26 17 15 15 19 18 18 25 28 31 32
58 80 49 49 54 72 65 47 44 35 40 44 46 45 54 47 40 48 64 73 58 60 74 84 62 41 33 23 16 18 14 15 21 20 18 16 14 15 17 19 22 26 30 30 31
58 71 62 81 70 68 60 56 56 57 40 36 49 47 51 60 46 88 66 58 62 75 82 91 55 41 35 31 30 24 14 14 18 18 18 14 15 12 14 16 21 24 28 30 29
90 79 60 76 58 60 59 56 55 57 57 53 48 45 48 55 50 55 51 74 99 90 93 81 68 39 36 29 26 27 18 14 14 16 16 13 16 11 10 9 13 23 27 28 28
72 71 92 69 65 72 72 68 83 85 66 46 53 58 57 47 46 44 43 47 56 64 77 78 89 49 39 26 27 32 23 16 15 14 16 17 15 14 15 13 16 25 26 26 27

GFSSW_sfc_rhum_030.txt.gz
RH
68 68 70 71 72 72 71 71 71 72 72 74 75 75 76 75 76 34 34 21 26 65 69 18 29 23 23 27 18 13 19 21 19 16 13 10 10 8 8 9 9 10 10 10 9
70 70 71 72 68 71 73 72 71 71 73 73 75 76 78 80 54 34 27 52 55 66 14 13 18 21 22 22 22 20 20 19 14 13 13 11 10 10 12 12 12 11 9 9 9
68 68 71 73 73 74 75 73 72 72 71 72 74 75 78 68 34 10 57 61 66 51 10 10 10 14 20 16 19 21 22 16 14 14 12 13 13 11 13 13 13 14 12 10 10
72 73 74 75 75 75 76 76 73 72 73 74 75 75 77 52 17 19 53 48 50 16 11 11 11 13 22 22 16 19 18 16 15 14 14 14 12 13 12 13 11 12 11 11 12
75 75 76 76 76 78 80 77 76 75 76 76 75 73 55 26 23 11 55 45 16 15 17 17 14 14 16 18 18 17 15 14 14 14 14 12 13 12 12 11 10 10 12 13 13
76 77 77 77 77 80 82 83 82 82 77 75 75 71 56 45 12 9 10 12 11 14 15 19 17 14 14 14 15 15 14 13 12 12 11 12 12 11 12 12 11 12 13 12 12
81 82 79 78 78 79 83 84 84 84 78 76 74 57 52 37 15 13 12 11 11 12 15 13 16 18 16 16 12 12 16 14 13 12 13 12 15 14 11 10 12 12 12 12 12
81 82 79 78 79 81 82 83 83 80 76 76 74 56 50 16 13 12 12 12 9 10 11 10 11 13 15 14 14 15 15 19 15 14 13 14 21 15 12 12 13 12 12 12 13
82 83 81 79 78 79 83 85 83 77 73 70 62 49 36 22 19 17 13 11 8 8 10 10 12 17 14 18 20 18 21 20 18 13 14 15 19 14 12 13 15 15 14 13 13
81 83 85 83 81 84 85 84 72 65 50 37 39 41 31 24 14 11 11 13 13 12 13 15 16 19 17 16 26 23 21 19 20 15 14 16 17 14 13 13 15 15 14 14 14
80 84 85 85 85 85 73 44 21 32 40 39 29 34 22 14 9 9 8 11 15 20 19 16 21 22 20 16 14 16 18 19 16 13 16 18 17 15 13 13 13 15 16 17 18
81 82 83 85 86 84 64 38 26 26 34 23 20 19 14 11 14 10 8 12 15 24 20 18 23 19 14 13 13 13 16 17 15 12 14 16 16 14 14 14 14 14 16 17 17
86 86 85 85 84 66 37 25 20 21 35 29 21 18 14 11 14 13 10 11 13 16 20 21 16 14 16 15 14 14 15 17 17 14 13 15 18 18 14 13 13 13 14 16 18
87 86 86 83 67 32 29 21 18 23 45 22 14 14 12 11 15 10 10 12 12 14 13 16 15 13 15 17 14 18 11 11 14 16 20 14 24 22 17 16 14 14 15 15 16
87 87 87 83 54 33 27 22 22 31 60 16 25 15 18 21 20 18 15 13 16 13 13 14 13 16 15 14 14 15 10 12 12 15 19 16 21 20 16 16 15 14 14 14 16
87 86 86 43 48 30 23 26 35 75 80 31 30 25 24 24 28 28 18 18 14 15 14 12 9 10 13 11 11 12 13 13 14 14 23 20 20 20 17 18 15 14 13 13 14
86 84 79 43 37 27 27 36 81 83 40 25 16 14 15 17 19 27 22 22 36 47 28 18 12 9 9 13 12 13 22 26 26 22 24 15 17 20 18 14 13 14 14 15 15
84 89 57 34 26 30 37 71 78 78 28 17 17 17 21 18 14 13 22 27 19 21 34 46 45 13 10 12 16 16 20 21 32 26 19 14 20 17 15 12 12 11 13 14 18
85 43 41 30 30 35 53 76 88 48 18 22 20 41 42 35 36 21 17 19 17 24 48 52 41 21 19 10 12 17 18 15 22 16 15 14 16 16 14 13 13 12 14 21 31
59 46 32 32 35 47 78 59 35 19 16 18 31 37 49 34 38 39 38 37 31 27 33 36 48 26 27 10 11 16 12 20 19 30 29 17 19 15 18 16 16 16 16 29 35
56 40 34 28 36 52 88 48 25 16 18 25 30 38 46 42 39 41 35 38 33 27 26 30 46 37 31 25 13 16 16 16 19 17 24 26 18 17 21 17 15 15 16 30 34
47 47 28 28 78 77 67 36 37 27 17 19 27 30 42 51 43 38 35 43 32 33 41 33 55 51 35 24 16 13 17 19 22 28 19 18 18 16 15 14 15 14 16 27 31
49 30 34 33 88 66 45 35 28 26 25 34 27 27 36 47 84 86 75 57 37 45 55 66 61 62 49 32 29 33 16 18 23 26 27 21 19 14 13 13 15 18 17 30 32
52 66 36 32 38 52 51 46 44 33 36 30 31 29 44 60 40 48 86 63 46 51 56 68 73 61 70 47 64 55 30 16 21 25 22 18 18 17 18 16 20 22 28 28 31
43 60 40 62 55 45 46 44 50 42 32 32 45 36 41 50 34 52 48 45 45 62 57 84 93 66 56 47 75 75 60 21 16 19 22 19 17 16 19 23 24 29 29 29 30
65 50 41 57 43 43 54 49 51 40 47 47 55 50 43 53 50 53 46 44 55 53 82 88 96 70 67 40 58 85 52 36 13 14 16 17 16 19 21 22 26 28 27 29 29
53 48 59 67 49 52 66 57 57 49 46 37 43 66 56 51 46 43 43 45 42 44 51 70 93 98 68 42 69 61 42 35 17 13 16 19 21 21 18 17 26 27 26 28 28

GFSSW_sfc_rhum_033.txt.gz
RH
68 68 68 71 71 68 70 74 74 74 74 74 75 76 77 79 82 60 50 32 38 55 66 24 36 30 29 37 34 31 40 32 27 24 20 15 15 11 12 13 13 15 17 18 16
69 68 69 68 69 70 72 75 74 73 74 74 75 76 78 80 82 63 43 53 52 69 28 18 17 34 39 34 35 43 39 29 18 17 18 15 14 14 15 16 16 16 15 14 13
72 72 73 73 70 76 76 76 75 75 73 74 75 76 78 78 64 24 56 60 54 62 18 16 15 17 37 30 30 31 39 27 21 17 16 16 17 16 16 18 18 18 16 13 14
74 74 75 76 76 76 77 77 77 75 74 75 76 76 76 74 37 24 59 68 69 37 19 16 16 18 20 29 24 31 28 27 22 18 17 18 16 18 18 18 15 14 16 16 17
77 76 76 77 77 78 81 80 79 78 78 78 75 74 72 63 51 18 55 47 18 17 18 18 18 20 22 19 23 26 22 19 20 20 19 17 18 18 18 14 13 12 13 17 19
79 79 78 76 77 80 84 85 85 84 80 78 75 74 82 90 26 16 14 17 18 17 17 18 20 18 20 19 18 20 23 21 18 17 16 17 16 15 14 13 13 12 14 17 18
84 83 80 79 79 81 83 84 84 83 77 75 73 66 75 73 25 20 24 22 17 15 17 18 22 23 20 22 17 18 20 17 17 18 18 15 18 17 14 14 15 14 12 12 16
82 84 82 80 81 82 83 84 85 83 77 75 73 72 82 33 31 32 28 26 18 14 13 14 14 17 24 22 22 24 23 27 18 16 15 17 24 18 15 16 19 16 14 16 19
78 84 84 81 80 82 85 87 86 80 77 73 79 83 64 31 31 23 20 20 16 12 12 9 14 21 22 29 30 28 34 29 24 16 16 20 23 17 16 16 17 16 15 15 16
78 84 86 84 81 85 87 86 75 72 61 46 48 67 44 34 19 15 19 18 17 16 15 13 19 25 25 30 38 34 32 27 27 20 18 20 20 16 15 15 16 16 16 17 17
79 84 85 85 85 86 86 75 39 56 60 37 33 50 38 25 19 14 10 13 16 22 25 21 26 32 26 24 25 21 26 26 23 18 20 20 20 18 17 19 18 20 23 23 26
81 82 84 87 88 86 91 75 32 32 42 28 27 25 21 19 23 18 12 16 18 24 27 30 27 21 21 20 22 23 22 21 19 18 19 20 20 18 17 16 15 15 17 23 28
86 87 87 89 88 87 59 32 24 29 50 34 25 26 25 20 25 22 15 15 17 18 20 30 28 16 19 23 23 22 23 20 20 17 15 17 22 20 16 16 15 19 20 23 25
86 87 88 89 76 54 41 28 28 34 66 40 36 28 20 20 25 15 12 15 16 18 16 17 15 21 19 21 21 26 18 17 18 21 25 20 29 20 16 16 16 14 20 20 20
85 86 86 88 82 63 41 30 39 48 91 37 30 25 15 25 26 24 21 14 20 19 16 18 16 16 20 20 16 22 18 18 18 20 20 20 29 18 22 25 26 23 19 22 24
83 83 85 62 80 54 35 35 49 87 94 56 19 16 15 16 16 20 29 26 23 19 17 17 12 12 13 10 15 14 19 20 21 23 31 21 22 20 18 17 23 20 21 18 20
83 83 86 56 65 35 39 54 87 89 48 32 20 24 25 34 30 28 32 38 67 65 30 20 18 13 12 14 12 15 21 33 42 36 35 19 24 20 23 21 19 18 19 20 22
85 87 77 47 46 46 55 83 87 55 49 18 17 24 32 28 32 36 32 33 42 50 58 53 50 31 21 14 16 17 22 30 49 42 30 20 26 23 17 14 15 13 17 32 42
84 66 68 54 41 54 74 94 84 53 30 28 25 30 37 31 40 62 46 41 40 37 70 63 44 28 25 22 19 16 20 19 25 25 32 24 20 15 13 12 16 18 27 51 54
91 74 61 43 48 65 88 74 51 30 34 35 34 30 43 44 48 69 62 38 43 32 44 42 58 28 22 19 22 34 18 32 24 38 43 30 22 22 16 18 14 25 42 53 54
94 79 55 37 54 79 97 72 42 30 31 31 42 37 36 54 57 49 57 42 46 42 60 55 54 42 30 28 34 39 23 20 28 24 35 42 30 17 16 14 20 29 45 50 51
76 84 45 47 89 94 91 48 44 34 35 41 49 42 44 48 55 52 64 68 76 59 60 50 78 75 50 37 28 30 34 18 30 37 26 34 27 18 19 26 25 34 43 46 46
91 70 53 54 96 91 58 40 36 38 50 58 42 40 48 58 79 79 83 60 55 59 69 73 85 92 65 39 35 40 37 30 26 34 29 30 27 14 16 22 20 37 42 42 46
87 90 64 60 57 64 59 54 57 39 38 35 42 46 56 59 48 59 84 63 67 63 61 74 79 75 85 68 70 79 65 58 62 42 29 26 22 15 23 21 31 37 41 42 44
86 83 65 88 78 66 67 77 79 58 42 44 53 53 62 75 63 69 58 50 40 53 70 82 87 76 68 63 52 66 64 54 65 62 39 24 23 16 26 45 35 38 39 41 44
90 81 70 79 64 64 74 96 94 76 64 58 64 61 60 86 68 73 66 65 74 71 85 91 98 83 80 62 54 57 46 47 54 53 51 28 21 27 41 36 37 37 37 40 40
74 77 86 82 71 73 71 66 88 83 58 50 52 69 82 77 63 58 54 54 59 64 67 86 96 100 87 58 61 72 54 46 47 42 45 38 17 38 48 50 51 43 36 38 38